Regional Weather Roundup
Issued by NWS

Home | Current Version | Previous Version | Graphics & Text | Print | Product List | Glossary On
Versions: 1 2 3 4 5 6 7 8 9 10 11 12 13 14 15 16 17 18 19 20 21 22 23 24 25 26 27 28 29 30 31 32 33 34 35 36 37 38 39 40 41 42 43 44 45 46 47 48 49 50
018
ASUS43 KFSD 250510
RWRSD

WEATHER ROUNDUP FOR SOUTH DAKOTA
NATIONAL WEATHER SERVICE SIOUX FALLS SD
1200 AM CDT SUN SEP 25 2016

NOTE: "FAIR" INDICATES FEW OR NO CLOUDS BELOW 12,000 FEET WITH NO
SIGNIFICANT WEATHER AND/OR OBSTRUCTIONS TO VISIBILITY.


SDZ001>005-009-010-012>017-250600-
NORTHWEST AND NORTH CENTRAL SOUTH DAKOTA

CITY           SKY/WX    TMP DP  RH WIND       PRES   REMARKS
BUFFALO          N/A     50  47  89 NW40G54   29.91R
FAITH            N/A     52  49  89 W35G47    29.88R
MOBRIDGE       CLEAR     54  43  66 S16       29.78F
$$

SDZ012>016-024>037-041>051-057-063-072>074-250600-
SOUTHWEST AND SOUTH CENTRAL SOUTH DAKOTA

CITY           SKY/WX    TMP DP  RH WIND       PRES   REMARKS
RAPID CTY ARPT CLOUDY    54  39  57 NW17G30   30.05R
PIERRE         CLEAR     53  40  61 SW15      29.92S
CUSTER         CLOUDY    43  35  73 W15G26    30.13R
ELLSWORTH AFB  CLOUDY    54  40  58 NW25G43   30.03R
PHILIP         CLOUDY    54  46  74 W21       29.99R
PINE RIDGE     CLOUDY    52  43  71 W20G26    30.12R
WINNER         FAIR      57  42  57 W17       30.00R
$$

SDZ004>011-016>023-039-040-250600-
NORTHEAST SOUTH DAKOTA

CITY           SKY/WX    TMP DP  RH WIND       PRES   REMARKS
ABERDEEN       CLEAR     57  48  72 SW10      29.85R
WATERTOWN      PTCLDY    65  64  97 S9        29.87S
BROOKINGS      CLOUDY    67  66  97 S7          N/A
SISSETON         N/A     66  65  96 S9        29.83S
$$

SDZ017-020-022-023-036>040-048>070-250600-
SOUTHEAST SOUTH DAKOTA

CITY           SKY/WX    TMP DP  RH WIND       PRES   REMARKS
SIOUX FALLS    CLOUDY    70  68  93 SW7       29.91S
HURON          CLEAR     57  47  69 W10       29.91R
CHAMBERLAIN    CLEAR     58  45  60 W10       29.97S
MITCHELL       CLEAR     61  46  57 W14       29.93R
YANKTON        PTCLDY    66  63  88 SW6       29.92R
$$

ABBREVIATIONS USED IN REMARKS
   TC - TEMPERATURE IN CELSIUS
  WCI - WIND CHILL INDEX
   HX - HEAT INDEX
  VSB - VISIBILITY





USA.gov is the U.S. government's official web portal to all federal, state and local government web resources and services.